Location: Shannon
(40.5500°S, 175.4167°E)
Time: 21:36:14
(UTC+00:00)

Sich 1 - Pass Details

Date: 17 November 2025
Orbit: 573 x 598 km, 82.5° (Epoch: 14 December)

Event Time Altitude Azimuth Distance (km) Brightness Sun altitude
Exits shadow 13:16:18 46° 182° (S) 811 3.9 -28.0°
Drops below altitude 10° 13:19:21 10° 174° (S) 1,938 6.5 -27.8°
Sets 13:21:34 0° 173° (S) 2,843 7.6 -27.6°
